sat.trackr.live / text

‹ back to catalog

ONEWEB-0264

NORAD 48982 · 2021-060R

PAYLOAD ACTIVE UNKNOWN

§ Identity

Operator
Country
UK
Launch date
2021-07-01
Launch site
VOSTO
Launch vehicle
Mass (kg)
RCS (m²)

Purposes: comms

External: N2YO · Heavens-Above · Gunter

§ Orbital elements

Epoch: 2026-09-20T04:19:56.030304Z

Period
109.37 min
Inclination
87.9154°
Eccentricity
0.0002209
Mean motion
13.16593623 rev/d
Perigee alt
1,196.1 km
Apogee alt
1,199.4 km
Semi-major
7,575.9 km
B*
1.7538e-4
RAAN
209.9209°
Arg perigee
75.1406°
Mean anomaly
284.9969°
Rev number
25,209

§ Raw data

ONEWEB-02641 48982U 21060R   26263.18050961  .00000080  00000+0  17538-3 0  99932 48982  87.9154 209.9209 0002209  75.1406 284.9969 13.16593623252098

JSON: /api/v1/satellites/48982 · /tle

For live sub-satellite position, see the globe view (requires WebGL).

§ Visibility from observer

Set your observer location to see the next 7 days of passes ≥ 10°. The values pass through the URL so the page stays shareable.

No JS? Fill the form by hand. The geolocation button needs JavaScript.